Location: Newark
(49.1939°N, 0.8136°E)
Time: 11:19:33
(UTC+00:00)

Envisat - Pass Details

Date: 29 November 2019
Orbit: 764 x 766 km, 98.1° (Epoch: 07 December)

Event Time Altitude Azimuth Distance (km) Brightness Sun altitude
Rises 17:45:00 0° 165° (SSE) 3,219 6.2 -16.1°
Reaches altitude 10° 17:47:18 10° 165° (SSE) 2,297 5.5 -16.5°
Maximum altitude 17:52:22 88° 256° (WSW) 773 3.0 -17.3°
Drops below altitude 10° 17:57:29 10° 346° (NNW) 2,314 5.5 -18.1°
Sets 17:59:48 0° 346° (NNW) 3,244 6.3 -18.5°
